User: anonymous   Login
Location: Unspecified
(0.0000°N, 0.0000°E)
Time: 00:54:05
(UTC+00:00)
Language:

STARLINK-34255 - Orbit

View from above orbital plane
View from above orbital plane
View from above satellite
View from above satellite

Ground track
Ground track

The orbit is defined by the following mean orbital elements,

1 65417U          26145.51459156 +.00000000 +00000-0 +63181-3 0 00002
2 65417  53.1575 235.6987 0001894  87.3767 272.7450 15.30212718    08
Epoch (UTC): 25 May 2026 12:21:00
Eccentricity: 0.0001894
inclination: 53.1575°
perigee height: 474 km
apogee height: 476 km
right ascension of ascending node: 235.6987°
argument of perigee: 87.3767°
revolutions per day: 15.30212718
mean anomaly at epoch: 272.7450°

The dashed part of the orbit path shows where the satellite is in the earth's shadow,  

DLR